Regional Weather Roundup
Issued by NWS Cleveland, OH

Home | Current Version | Previous Version | Graphics & Text | Print | Product List | Glossary On
Versions: 1 2 3 4 5 6 7 8 9 10 11 12 13 14 15 16 17 18 19 20 21 22 23 24 25 26 27 28 29 30 31 32 33 34 35 36 37 38 39 40 41 42 43 44 45 46 47 48 49 50
805
ASUS41 KCLE 211200
RWRCLE
OHIO REGIONAL WEATHER ROUNDUP
NATIONAL WEATHER SERVICE WILMINGTON, OH
800 AM EDT SAT OCT 21 2017

NOTE: "FAIR" INDICATES FEW OR NO CLOUDS BELOW 12,000 FEET WITH NO
SIGNIFICANT WEATHER AND/OR OBSTRUCTIONS TO VISIBILITY.

OHZ001>008-015>018-024>027-034-035-043-044-211300-
   NORTHWEST OHIO

CITY           SKY/WX    TMP DP  RH WIND       PRES   REMARKS
DEFIANCE       FAIR      52  49  89 CALM      30.21R
FINDLAY        FAIR      51  46  83 SE3       30.22R
TOLEDO EXPRESS FAIR      50  50 100 SE3       30.21R
TOLEDO EXEC    FAIR      50  45  83 S5        30.23R
LIMA           FAIR      53  50  89 S6        30.22R
$$

OHZ009>014-019>023-028>033-038-089-211300-
   NORTHEAST OHIO

CITY           SKY/WX    TMP DP  RH WIND       PRES   REMARKS
CLE-HOPKINS    MOCLDY    50  42  74 SE5       30.28R
CLE-LAKEFRONT  FAIR      54  41  61 S15       30.24S
CUY CO. ARPT   PTCLDY    55  43  62 S8        30.27R
LORAIN-ELYRIA  FAIR      49  38  65 S3        30.26R
ASHTABULA      FAIR      46  39  76 CALM      30.29R
AKRON-CANTON   FAIR      51  40  65 CALM      30.28R
WOOSTER        NOT AVBL
MANSFIELD      FAIR      51  42  71 S6        30.25S
YOUNGSTOWN     MOCLDY    45  39  79 SE7       30.28R
$$

OHZ042-051>053-060>062-070>072-077>081-211300-
  SOUTHWEST OHIO

CITY           SKY/WX    TMP DP  RH WIND       PRES   REMARKS
CINC-COVINGTON FAIR      54  52  93 S3        30.22R
CINC-LUNKEN    FOG       47  47 100 CALM      30.24S VSB<1/4
HAMILTON       FAIR      45  45 100 CALM      30.23S FOG
DAYTON         NOT AVBL
WRIGHT-PAT AFB NOT AVBL
DAYTON GENERAL FAIR      54  49  83 S6        30.22S
WILMINGTON     FAIR      49  49 100 CALM      30.24R
$$

OHZ036-037-039>041-045>050-054>059-063>069-073>076-082>088-211300-
  CENTRAL AND SOUTHEAST OHIO

CITY           SKY/WX    TMP DP  RH WIND       PRES   REMARKS
COLUMBUS       FAIR      50  45  83 CALM      30.25R
OSU AIRPORT    FAIR      48  45  89 CALM      30.25R
BOLTON FIELD   CLEAR     43  43 100 CALM      30.26R
RICKENBACK AFB NOT AVBL
NEWARK         FAIR      42  39  89 CALM      30.27R
MARION         FAIR      51  41  68 S6        30.25R
LANCASTER      FAIR      40  39  97 CALM      30.26R
ZANESVILLE     FAIR      42  40  92 CALM      30.26R
NEW PHILLY     FAIR      42  40  92 CALM      30.28R
$$




USA.gov is the U.S. government's official web portal to all federal, state and local government web resources and services.